Retour au catalogue

CZ-6A DEB

ActifSSO
NORAD 54299·DEBRIS·🇨🇳 China

Lancé Nov 11, 2022 depuis Taiyuan Satellite Launch Center

Loading…

Prochains Passages (prochaines 24 heures)

TLE

FraisSource: Space-Track

Époque: Sep 14, 2026, 05:10 UTC

1 54299U 22151AS  26257.21593020  .00000120  00000-0  95182-4 0  9996
2 54299  98.8626 251.2667 0055399  99.0658 261.6786 14.07650295196659

Suivez CZ-6A DEB en temps réel avec AllMySat

Download on the App Store